TimeMDT,TemperatureF,Dew PointF,Humidity,Sea Level PressureIn,VisibilityMPH,Wind Direction,Wind SpeedMPH,Gust SpeedMPH,PrecipitationIn,Events,Conditions,WindDirDegrees,DateUTC
4:12 AM,35.6,26.6,70,30.09,10.0,WNW,13.8,-,N/A,,Clear,300,2012-10-13 10:12:00
4:51 AM,35.6,26.6,70,30.09,10.0,NW,11.5,-,N/A,,Clear,310,2012-10-13 10:51:00
5:10 AM,35.6,28.4,75,30.09,10.0,NW,8.1,-,N/A,,Clear,320,2012-10-13 11:10:00
5:24 AM,35.6,26.6,70,30.09,10.0,NW,11.5,-,N/A,,Clear,320,2012-10-13 11:24:00
5:58 AM,37.4,26.6,65,30.09,10.0,NW,8.1,-,N/A,,Scattered Clouds,310,2012-10-13 11:58:00
6:24 AM,37.4,26.6,65,30.09,10.0,NW,11.5,-,N/A,,Mostly Cloudy,320,2012-10-13 12:24:00
6:55 AM,35.6,26.6,70,30.10,10.0,West,3.5,-,N/A,,Mostly Cloudy,280,2012-10-13 12:55:00
7:37 AM,35.6,28.4,75,30.10,10.0,North,5.8,-,N/A,,Overcast,350,2012-10-13 13:37:00
8:30 AM,41.0,28.4,61,30.10,10.0,NNW,3.5,-,N/A,,Mostly Cloudy,340,2012-10-13 14:30:00
8:37 AM,41.0,28.4,61,30.10,10.0,NNW,5.8,-,N/A,,Mostly Cloudy,340,2012-10-13 14:37:00
8:56 AM,41.0,28.4,61,30.10,10.0,NNW,6.9,-,N/A,,Overcast,330,2012-10-13 14:56:00
9:20 AM,41.0,30.2,65,30.11,10.0,NW,9.2,-,N/A,,Mostly Cloudy,320,2012-10-13 15:20:00
9:53 AM,41.0,32.0,70,30.11,10.0,NW,13.8,18.4,N/A,,Overcast,310,2012-10-13 15:53:00
10:10 AM,41.0,32.0,70,30.11,10.0,NW,13.8,-,N/A,,Unknown,310,2012-10-13 16:10:00
10:35 AM,41.0,32.0,70,30.11,10.0,North,11.5,-,N/A,,Overcast,350,2012-10-13 16:35:00
10:44 AM,41.0,33.8,76,30.11,10.0,NNW,13.8,-,N/A,,Overcast,340,2012-10-13 16:44:00
11:15 AM,42.8,32.0,66,30.11,10.0,North,17.3,28.8,N/A,,Overcast,350,2012-10-13 17:15:00
11:35 AM,42.8,32.0,66,30.12,10.0,NNW,18.4,24.2,N/A,Rain,Light Rain,340,2012-10-13 17:35:00
11:55 AM,44.6,30.2,57,30.11,10.0,NNW,13.8,20.7,N/A,,Overcast,340,2012-10-13 17:55:00
12:08 PM,46.4,30.2,53,30.11,10.0,NNW,17.3,24.2,N/A,,Overcast,330,2012-10-13 18:08:00
12:34 PM,46.4,32.0,57,30.10,10.0,NNW,21.9,26.5,N/A,,Overcast,340,2012-10-13 18:34:00
12:48 PM,46.4,32.0,57,30.10,10.0,North,20.7,26.5,N/A,,Mostly Cloudy,350,2012-10-13 18:48:00
1:09 PM,48.2,30.2,50,30.09,10.0,NW,27.6,33.4,N/A,,Overcast,320,2012-10-13 19:09:00
1:19 PM,48.2,30.2,50,30.09,10.0,NNW,24.2,35.7,N/A,,Overcast,330,2012-10-13 19:19:00
2:35 PM,53.6,32.0,44,30.08,10.0,NW,33.4,43.7,N/A,,Clear,320,2012-10-13 20:35:00
2:55 PM,53.6,32.0,44,30.09,10.0,NNW,31.1,39.1,N/A,,Scattered Clouds,330,2012-10-13 20:55:00
3:12 PM,48.2,30.2,50,30.10,10.0,NW,32.2,42.6,N/A,,Scattered Clouds,320,2012-10-13 21:12:00
3:55 PM,50.0,32.0,50,30.13,10.0,NW,24.2,33.4,N/A,,Overcast,310,2012-10-13 21:55:00
4:00 PM,50.0,32.0,50,30.13,10.0,NW,25.3,33.4,N/A,,Overcast,320,2012-10-13 22:00:00
4:16 PM,53.6,32.0,44,30.14,10.0,NW,23.0,32.2,N/A,,Overcast,320,2012-10-13 22:16:00
4:39 PM,53.6,32.0,44,30.15,10.0,NW,21.9,29.9,N/A,,Overcast,320,2012-10-13 22:39:00
4:58 PM,53.6,32.0,44,30.16,10.0,NW,20.7,28.8,N/A,,Overcast,320,2012-10-13 22:58:00
5:30 PM,53.6,33.8,47,30.16,10.0,NW,20.7,26.5,N/A,,Scattered Clouds,320,2012-10-13 23:30:00
6:16 PM,48.2,32.0,54,30.19,10.0,NNW,15.0,24.2,N/A,,Clear,340,2012-10-14 00:16:00
7:57 PM,44.6,32.0,61,30.26,10.0,NW,16.1,-,N/A,,Clear,320,2012-10-14 01:57:00
8:19 PM,44.6,32.0,61,30.26,10.0,NNW,16.1,-,N/A,,Clear,330,2012-10-14 02:19:00
8:57 PM,42.8,32.0,66,30.28,10.0,NNW,16.1,-,N/A,,Clear,330,2012-10-14 02:57:00
9:56 PM,41.0,32.0,70,30.29,10.0,NW,8.1,-,N/A,,Clear,310,2012-10-14 03:56:00
10:29 PM,39.2,32.0,75,30.31,10.0,NW,10.4,-,N/A,,Clear,320,2012-10-14 04:29:00